Orio, Spain
Current Conditions -  °F | °C
As of 3:30 PM on Thursday 30 Oct 2014 (Local Time) from LESO Reporting Station
Clear Clear  
Wind Chill: 73°   Ceiling: Unl
Heat Index: 73°   Visibility: 6mi
Dew Point: 61°   Wind: 6mph
Humidity: 65%   Direction: 330°NNW
Pressure: 30.06"   Gusts: NA
Location:  43.28°N, 2.13°W
Report Text: LESO 301430Z 33005KT 300V030 CAVOK 23/16 Q1018
Loading
Personal Weather Stations






























Interactive Weather Map
Tropical Storm Tracking
New forecast layout! Learn more

10-Day Weather Forecast

Advertisements
Track Severe Weather on mobile